Regional Weather Roundup
Issued by NWS

Home | Current Version | Previous Version | Text Only | Print | Product List | Glossary Off
Versions: 1 2 3 4 5 6 7 8 9 10 11 12 13 14 15 16 17 18 19 20 21 22 23 24 25 26 27 28 29 30 31 32 33 34 35 36 37 38 39 40 41 42 43 44 45 46 47 48 49 50

000
ASUS45 KSLC 260110
RWRUT

UTAH REGIONAL WEATHER ROUNDUP
NATIONAL WEATHER SERVICE SALT LAKE CITY UT
700 PM MDT WED MAY 25 2016

UTZ001>011-023>025-260200-

NORTHERN UTAH

CITY           SKY/WX    TMP DP  RH WIND       PRES   REMARKS
BRIGHAM CITY     N/A     62  38  42 N10       30.01F
HILL AFB       SUNNY     60  41  49 N12       30.02R
LOGAN          PTSUNNY   55  43  63 N6        30.03F
OGDEN          MOSUNNY   61  41  47 N15G22    30.00S
PROVO AIRPORT  PTSUNNY   64  36  34 NW12      29.98F
SALT LAKE CITY PTSUNNY   65  36  34 W8        29.99R
VERNAL         MOSUNNY   65  25  22 SW3       29.97F
WENDOVER       CLOUDY    54  43  66 W12G20    30.05R
HEBER CITY     PTSUNNY   63  30  29 W8        29.99S
WEST JORDAN    MOSUNNY   61  39  44 NW5       30.00F

$$

UTZ012>022-026-027-260200-

SOUTHERN/CENTRAL UTAH

CITY           SKY/WX    TMP DP  RH WIND       PRES   REMARKS
BLANDING       MOSUNNY   68  14  12 S5        30.04F
BRYCE CANYON   PTSUNNY   56  12  17 S12       30.07S
CEDAR CITY     MOSUNNY   67  14  13 SW12      29.95F
DELTA          SUNNY     64  30  27 N16       29.95S
HANKSVILLE     SUNNY     75  10   8 S14       29.91F
MILFORD        MOSUNNY   69  17  13 SW12      29.93S
MOAB/CYNLANDS  SUNNY     75   4   6 W10       29.89F
PRICE          PTSUNNY   62  23  22 NW10      29.97F
ST GEORGE      MOCLDY    77  19  11 NW8       29.87F

$$

REGIONAL REPORTS     COLORADO/ARIZONA

CITY           SKY/WX    TMP DP  RH WIND       PRES   REMARKS
CRAIG, CO      MOSUNNY   64  27  24 W12       30.00F
GRAND JUNCTION MOSUNNY   72  15  11 W9        29.93F
RIFLE          SUNNY     70  21  15 W13       29.96F
MONTROSE       SUNNY     70   9   9 SW10      29.99F
CORTEZ         SUNNY     69  19  15 SW8       29.98F
PAGE, AZ       MOSUNNY   76  14   9 VRB5      29.87F
GRAND CANYON   MOSUNNY   64  15  15 SW15G24   30.03F
KINGMAN        MOSUNNY   74  17  11 SW24G31   29.91F
FLAGSTAFF      SUNNY     58  12  16 SW22G30   30.08F

$$

REGIONAL REPORTS    NEVADA/IDAHO/WYOMING

CITY           SKY/WX    TMP DP  RH WIND       PRES   REMARKS
LAS VEGAS, NV  MOSUNNY   75  31  19 W23       29.81S
ELY            PTSUNNY   52  31  44 NW9       30.06R
ELKO           CLOUDY    54  42  64 VRB5      30.06S THUNDER
POCATELLO, ID  PTSUNNY   55  43  63 S9        30.03S
BURLEY         MOSUNNY   60  40  47 S9        30.00S
EVANSTON, WY   CLOUDY    53  33  46 W13       30.07S THUNDER
ROCK SPRINGS   CLOUDY    47  34  60 SW20      30.09R
KEMMERER         N/A     46  34  61 W12       30.10R

$$



USA.gov is the U.S. government's official web portal to all federal, state and local government web resources and services.